User: anonymous   Login
Location: Unspecified
(0.0000°N, 0.0000°E)
Time: 17:22:06
(UTC+02:00)
Language:

Resurs 1-3 - Orbit

View from above orbital plane
View from above orbital plane
View from above satellite
View from above satellite

Ground track
Ground track

The orbit data is extracted from the following two-line orbital elements,

1 23342U 94074A   16272.09812554  .00000129  00000-0  24575-4 0  9999
2 23342  98.1122 302.5879 0001007 116.5836 243.5478 14.79200814179030
Epoch (UTC): 28 September 2016 02:21:18
Eccentricity: 0.0001007
inclination: 98.1122°
perigee height: 631 km
apogee height: 632 km
right ascension of ascending node: 302.5879°
argument of perigee: 116.5836°
revolutions per day: 14.79200814
mean anomaly at epoch: 243.5478°
orbit number at epoch: 17903

The dashed part of the orbit path shows where the satellite is in the earth's shadow,  

DLR